CDT,Max TemperatureF,Mean TemperatureF,Min TemperatureF,Max Dew PointF,MeanDew PointF,Min DewpointF,Max Humidity, Mean Humidity, Min Humidity, Max Sea Level PressureIn, Mean Sea Level PressureIn, Min Sea Level PressureIn, Max VisibilityMiles, Mean VisibilityMiles, Min VisibilityMiles, Max Wind SpeedMPH, Mean Wind SpeedMPH, Max Gust SpeedMPH,PrecipitationIn, CloudCover, Events, WindDirDegrees
2014-4-1,54,42,30,36,26,18,70,54,38,30.09,30.02,29.84,10,10,10,26,11,33,0.01,2,,302
2014-4-2,49,45,41,46,41,31,100,81,62,30.08,29.96,29.83,10,4,1,22,12,27,0.49,8,Rain,78
2014-4-3,59,52,44,53,47,42,93,87,80,29.84,29.69,29.55,10,5,0,28,10,33,1.08,7,Fog-Rain-Thunderstorm,83
2014-4-4,58,47,36,55,34,27,93,74,55,30.15,29.82,29.56,10,10,5,33,19,42,T,8,,283
2014-4-5,54,43,31,32,28,24,75,57,38,30.25,30.17,30.12,10,10,10,16,5,20,0.00,2,,229
2014-4-6,59,47,35,35,32,29,76,55,33,30.12,30.01,29.87,10,10,9,15,8,18,0.00,1,,138
2014-4-7,61,52,42,42,36,28,76,54,31,29.85,29.74,29.67,10,10,10,20,8,26,T,3,Rain,8
2014-4-8,62,52,41,41,34,26,82,56,29,30.03,29.87,29.75,10,10,10,24,13,40,0.00,2,,317
2014-4-9,67,51,35,34,30,27,82,52,22,30.11,30.00,29.84,10,10,10,20,10,25,0.00,0,,239
2014-4-10,69,59,48,44,35,25,47,41,34,30.00,29.83,29.71,10,10,10,31,14,41,0.00,1,,284
2014-4-11,73,57,40,32,28,25,53,36,19,30.09,30.03,29.98,10,10,10,15,5,20,0.00,0,,158
2014-4-12,82,67,52,57,50,33,72,56,40,29.97,29.77,29.62,10,10,10,28,16,36,0.00,1,,174
2014-4-13,73,61,49,59,55,47,86,72,57,29.69,29.56,29.41,10,9,2,31,15,41,0.33,6,Rain,200
2014-4-14,49,40,30,46,32,22,89,76,63,30.13,29.91,29.53,10,6,0,26,16,33,0.01,7,Fog-Rain-Snow,329
2014-4-15,47,36,25,24,20,17,75,53,31,30.23,30.18,30.14,10,10,10,20,8,29,0.00,0,,298
2014-4-16,58,47,35,29,25,22,54,42,30,30.16,30.08,29.96,10,10,10,28,16,36,0.00,0,,161
2014-4-17,52,47,42,39,34,25,76,58,39,30.29,30.22,30.06,10,10,10,18,7,25,T,4,Rain,289
2014-4-18,67,52,36,38,34,28,89,59,29,30.35,30.29,30.22,10,10,7,9,5,13,0.00,0,,31
2014-4-19,75,60,44,43,36,28,70,45,20,30.28,30.21,30.13,10,10,8,17,10,22,0.00,0,,140
2014-4-20,80,67,54,49,45,39,66,49,32,30.15,30.09,29.99,10,10,10,20,9,28,0.00,0,,184
2014-4-21,70,63,55,58,53,43,84,63,42,29.99,29.94,29.88,10,10,9,16,8,20,T,5,Rain,267
2014-4-22,65,55,45,45,35,29,76,53,30,30.08,30.02,29.95,10,10,10,21,11,26,0.00,0,,347
2014-4-23,60,51,42,33,32,31,70,53,36,30.14,30.03,29.88,10,10,10,20,14,26,T,3,,110
2014-4-24,69,60,50,56,47,33,96,68,39,29.88,29.70,29.56,10,8,1,24,13,31,0.38,6,Rain,198
2014-4-25,75,59,43,49,44,40,100,65,29,29.92,29.85,29.71,10,9,3,22,10,33,0.00,1,,266
2014-4-26,80,65,49,52,45,39,67,45,23,29.88,29.81,29.73,10,10,8,20,9,28,0.02,1,Rain-Thunderstorm,162
2014-4-27,79,65,51,67,57,39,87,72,57,29.79,29.60,29.51,10,9,0,25,14,32,0.65,5,Fog-Rain-Thunderstorm,135
2014-4-28,73,63,52,62,55,43,90,71,51,29.55,29.43,29.34,10,9,2,30,14,37,0.40,4,Rain-Thunderstorm,155
2014-4-29,57,51,45,48,46,41,100,80,59,29.69,29.56,29.41,10,9,3,23,12,26,0.08,8,Rain,218
2014-4-30,53,47,41,44,39,36,89,76,63,29.88,29.81,29.72,10,10,4,23,12,32,0.02,8,Rain,274